THORAD AGENA D DEB

Satellite information

Favourite Embed

Satellite Type and Status

DEBRISIN ORBIT

Key statistics

Satellite THORAD AGENA D DEB at a glance.

Uptime

20368

Days in orbit

Revolutions

≈ 14.1

Per day

Orbit

LEO

Low Earth Orbit

Inclination

70.1

Latest

Satellite identification and parameters

Extended collection of information and parameters for THORAD AGENA D DEB.

Object identification

Identified? True

Debris? True

Object name: THORAD AGENA D DEB

International designator: 1969-082P

Object number (NORAD): 4145

Object ID (CCSDS): 4145

Country: UNITED STATES OF AMERICA (US)

Current information (Y/N): Y

RCS size: MEDIUM

Orbital parameters

Period: 102.007 minutes

Inclination: 70.0588 deg

SMA: 7231.787 km

Apoapsis: 896.6 km

Periapsis: 810.705 km

RAAN: 186.5372 deg

Eccentricy: 0.0059387

Argument of periapsis: 2.295 deg

Mean anomaly: 357.8425 deg

Mean motion: 14.11673643 rev/day

Mean motion (dot): 0.00000171 rev/day2

B* drag term: 0.00012194 1/REarth

Two-line elements (TLE)

Creation date: July 5, 2025, 5:45 p.m.

Reference frame: TEME

Reference center: EARTH

Epoch: July 5, 2025, 9:46 a.m. UTC

TLE line 0: 0 THORAD AGENA D DEB

TLE line 1: 1 04145U 69082P 25186.40694676 .00000171 00000-0 12194-3 0 9992

TLE line 2: 2 04145 70.0588 186.5372 0059387 2.2950 357.8425 14.11673643868783

Live tracking on map

Real-time ground track for satellite THORAD AGENA D DEB.

In-orbit conjunctions

A list of the most updated potential collisions computed for object THORAD AGENA D DEB.

Target Orbit TCA Probability of collision Miss distance Type
SL-3 R/B LEO 2025-02-04 22:02:17 0.000233032 409.0 (m) ROCKET BODY
DELTA 1 DEB SSO 2024-06-12 13:27:30 0.0001500247 147.0 (m) DEBRIS

Associated space launch

Poppy was the follow-on ELINT system, which succeeded the Grab ELINT satellite system.

THORAD AGENA D DEB was lifted into orbit during the mission ‘Thorad SLV-2G Agena D | Poppy 8A,B,C,D’, on board a Thorad SLV-2G Agena D space rocket.

The launch took place on Sept. 30, 1969, 1:40 p.m. from Space Launch Complex 1W.

For more information about the launch, click the button.

Launch to space Thorad SLV-2G Agena D | Poppy 8A,B,C,D
Thorad SLV-2G Agena D | Poppy 8A,B,C,D

Agency: N/A

Status: Launch Successful

Launch date: Sept. 30, 1969, 1:40 p.m. UTC

Rocket: Thorad SLV-2G Agena D

Launch pad: Space Launch Complex 1W

Location: Vandenberg SFB, CA, USA

...

Latest news about this satellite

There are no fresh news available about this satellite. Check back as we update our databases every day.


Newsletter sign-up

Weekly statistics, charts and insights to help you stay on top of the space industry.